TimeCST,TemperatureF,Dew PointF,Humidity,Sea Level PressureIn,VisibilityMPH,Wind Direction,Wind SpeedMPH,Gust SpeedMPH,PrecipitationIn,Events,Conditions,WindDirDegrees,DateUTC
12:54 AM,42.1,36.0,79,30.07,9.0,WNW,6.9,-,N/A,,Clear,290,2012-11-20 06:54:00
1:54 AM,42.1,36.0,79,30.09,8.0,NW,6.9,-,N/A,,Clear,310,2012-11-20 07:54:00
2:54 AM,41.0,36.0,82,30.10,8.0,NNW,5.8,-,N/A,,Clear,330,2012-11-20 08:54:00
3:54 AM,41.0,36.0,82,30.10,7.0,NW,8.1,-,N/A,,Clear,310,2012-11-20 09:54:00
4:54 AM,39.9,35.1,83,30.12,7.0,NW,6.9,-,N/A,,Clear,310,2012-11-20 10:54:00
5:54 AM,39.0,35.1,86,30.15,6.0,NW,6.9,-,N/A,,Clear,310,2012-11-20 11:54:00
6:54 AM,37.9,34.0,86,30.17,5.0,NW,6.9,-,N/A,,Clear,310,2012-11-20 12:54:00
7:54 AM,37.9,34.0,86,30.19,4.0,NW,6.9,-,N/A,,Clear,310,2012-11-20 13:54:00
8:54 AM,41.0,36.0,82,30.19,5.0,NW,5.8,-,N/A,,Clear,320,2012-11-20 14:54:00
9:54 AM,45.0,37.0,74,30.20,6.0,NW,5.8,-,N/A,,Haze,310,2012-11-20 15:54:00
10:54 AM,48.9,39.0,69,30.20,7.0,WNW,6.9,-,N/A,,Clear,300,2012-11-20 16:54:00
11:54 AM,54.0,39.9,59,30.18,7.0,NW,5.8,-,N/A,,Clear,310,2012-11-20 17:54:00
12:54 PM,57.0,41.0,55,30.17,8.0,NW,6.9,-,N/A,,Clear,320,2012-11-20 18:54:00
1:54 PM,59.0,42.1,53,30.15,8.0,WNW,5.8,-,N/A,,Clear,300,2012-11-20 19:54:00
2:54 PM,60.1,41.0,49,30.15,9.0,NW,6.9,-,N/A,,Clear,310,2012-11-20 20:54:00
3:54 PM,59.0,39.9,49,30.16,10.0,West,3.5,-,N/A,,Partly Cloudy,270,2012-11-20 21:54:00
4:54 PM,55.9,39.0,53,30.16,10.0,Calm,Calm,-,N/A,,Partly Cloudy,0,2012-11-20 22:54:00
5:54 PM,54.0,39.0,57,30.17,10.0,Calm,Calm,-,N/A,,Clear,0,2012-11-20 23:54:00
6:54 PM,51.1,39.0,63,30.19,9.0,SSE,3.5,-,N/A,,Clear,150,2012-11-21 00:54:00
7:54 PM,48.0,37.9,68,30.19,8.0,SSE,4.6,-,N/A,,Clear,150,2012-11-21 01:54:00
8:54 PM,44.1,37.0,76,30.19,7.0,SSE,5.8,-,N/A,,Clear,160,2012-11-21 02:54:00
9:54 PM,42.1,36.0,79,30.19,8.0,South,8.1,-,N/A,,Clear,170,2012-11-21 03:54:00
10:54 PM,42.1,36.0,79,30.18,7.0,South,6.9,-,N/A,,Partly Cloudy,170,2012-11-21 04:54:00
11:54 PM,41.0,35.1,79,30.18,8.0,SSE,9.2,-,N/A,,Partly Cloudy,160,2012-11-21 05:54:00